星链-31149 (STARLINK-31149 )

导读

STARLINK-31149是美国SpaceX公司星链(Starlink)星座的成员卫星,属于星链互联网项目,于2024年1月29日发射升空。它部署在近地轨道,依托星链大规模低轨星座架构,旨在为全球尤其是偏远地区提供高速宽带互联网服务。作为星链组网扩容的一部分,它延续了Starlink v2设计方案,进一步完善了星座覆盖能力,支撑星链全球互联服务的落地。

基本信息
目录编号:
58863
目录名称:
STARLINK-31149
国际标识:
2024-019L
轨道中心:
EARTH
卫星名称:
星链-31149
卫星全名:
星链-31149 (STARLINK-31149 )
卫星状态:
在轨 (已飞行949 天)
发射日期:
2024-01-29 UTC
国别 :
美国 (US)
星等 :
--
轨道信息
数据来源 国际轨道数据 AOE轨道数据
星历时间 2026-09-03T21:56:30+0800
21小时前
查看轨道信息
2026-08-29T07:00:00+0800
6天前
查看轨道信息
半长轴 6861.212km 6861.179km
偏心率 0.0001024 0.0001159
轨道倾角 43.002° 43.005°
近地点辐角 282.322° 246.065°
升交点赤经 323.856° 355.609°
平近点角 77.752° 117.682°
近地点 482.372km 482.246km
远地点 483.778km 483.838km
周期 94.267分钟 94.267分钟
每日圈数 15.275715 15.275826
详细信息
固有亮度:
5
最大亮度:
0.3
卫星平台:
Starlink v2.0 mini
覆盖范围:
全球
运营商:
太空探索技术公司
运营商所在国:
美国
制造商(研发单位):
太空探索技术公司
制造商所在国:
美国
使用方式:
暂无
卫星简介
星链(Starlink)计划是由太空探索技术公司(SpaceX)提出的一个巨型低轨卫星互联网星座项目,计划在2019年至2024年间在太空搭建由约1.2万颗卫星组成的“星链”网络,其中1584颗将部署在地球上空550千米处的近地轨道,并从2020年开始工作。该卫星仍在工作。
2D轨道图
3D轨道图
轨道高度分析图
轨道倾角分析图
轨道综合分析图
查看轨道综合分析图
交会数据列表
事件ID 空间交会对象 最接近时刻(TCA) 交会距离 交会风险概率(CRP) 交会风险指数(CRI) 操作
CDM_260905-132005-886306-075021
OBJECT F (60750)
2026-09-05T
13:20:25+0000
1.450 km
极远距离
5.879089E-6 低风险 0.5
CDM_260905-085005-886306-733021
2026-09-05T
08:50:09+0000
1.341 km
极远距离
5.540288E-6 低风险 0.5
CDM_260905-045405-886306-733021
2026-09-05T
04:54:46+0000
1.383 km
极远距离
5.004928E-6 低风险 0.49
CDM_260905-161105-619205-886321
2026-09-05T
16:11:36+0000
2.922 km
极远距离
1.358842E-6 低风险 0.38
CDM_260906-074905-322805-886321
2026-09-06T
07:49:48+0000
2.670 km
极远距离
1.018322E-6 低风险 0.35